Theta_e
305 304 303 303 303 302 302 302 303 304 304 303 303 303 302 303 302 303 303 304 305 305 305 305 305 305 305 305 305 305 306 306 306 306 307 308 307 307 308 308 310 313 314 313 312 310 309 308 309 309 310 312 312 312 311 312 312 311 315 316 314 315 315 316 319 315 314 315 314 312 311 317 323 324 327 328 329 329 329 330 331 331 330 332 335 335 336 337
305 304 303 303 302 302 302 302 303 304 304 303 304 303 302 303 303 303 304 304 305 305 305 305 305 305 305 305 305 306 306 306 306 306 307 308 307 307 307 307 310 313 313 312 311 309 308 308 309 310 311 311 311 310 310 311 311 312 315 314 316 319 314 312 315 313 313 313 313 312 311 317 321 323 326 329 327 326 330 332 331 333 335 335 336 335 336 337
304 303 303 303 302 302 302 302 304 305 305 304 303 303 302 302 303 304 304 304 305 305 305 305 305 305 305 305 305 306 305 307 309 309 309 309 308 307 307 308 311 313 313 311 310 309 308 308 310 310 310 311 310 310 310 310 310 311 311 313 318 317 312 311 311 312 313 312 311 310 312 318 321 321 324 327 325 327 331 332 333 335 336 336 337 337 336 337
303 303 303 302 302 302 303 305 306 306 305 304 303 303 302 302 303 304 304 304 304 304 304 304 305 305 305 305 305 304 306 311 313 312 313 311 308 307 307 308 311 313 313 311 309 309 309 309 309 310 310 311 310 310 310 310 310 310 310 315 316 312 312 313 311 313 313 312 311 310 313 317 319 321 324 325 327 329 327 329 332 333 334 336 338 338 337 337
303 303 302 302 304 306 308 309 308 307 306 305 304 303 303 302 303 303 304 304 304 304 304 304 304 304 304 304 304 304 308 315 315 314 314 312 309 308 308 309 311 313 312 311 310 309 309 309 309 310 310 311 310 310 310 310 310 310 310 311 312 309 311 313 312 312 313 313 311 311 314 316 317 321 324 325 330 330 326 327 328 328 330 333 336 337 335 334
303 304 305 307 309 311 312 311 311 309 307 305 304 304 303 303 302 303 303 303 304 304 304 304 304 304 304 303 304 305 310 315 316 313 313 312 311 311 311 310 311 312 311 310 310 309 309 308 309 310 309 310 310 310 311 310 309 311 311 308 309 310 310 312 312 312 313 312 311 312 314 315 318 322 324 324 327 325 324 327 327 328 328 329 334 335 333 332
306 308 310 311 312 312 312 311 311 310 309 307 305 304 304 304 303 303 303 303 303 303 303 303 303 303 303 304 306 308 310 313 315 314 314 313 312 312 312 312 311 312 311 311 310 308 308 308 310 311 310 311 310 309 310 310 309 310 311 309 310 311 310 311 312 311 312 311 312 313 312 313 318 323 323 322 321 319 321 325 326 329 332 333 334 334 331 330
311 312 312 311 311 311 311 311 311 310 309 308 306 305 304 303 304 304 303 303 303 303 303 303 304 303 304 305 308 311 312 313 314 313 315 314 312 312 313 313 312 312 312 311 309 308 309 309 311 310 311 311 309 309 310 309 310 310 311 310 309 310 310 312 312 312 311 311 312 313 313 313 317 321 321 322 320 318 320 324 327 331 335 335 334 333 331 328
312 312 311 311 311 311 311 311 311 310 309 308 307 305 304 303 304 304 304 304 304 304 304 304 304 303 304 306 308 313 314 313 312 311 313 313 310 310 312 313 312 312 311 309 308 308 310 310 311 312 311 311 310 310 310 311 312 310 310 310 310 311 311 312 311 312 311 312 312 312 314 313 314 318 320 321 319 319 321 324 328 332 335 336 333 332 330 328
312 312 311 311 311 311 312 312 311 311 310 309 309 307 304 303 304 304 304 304 304 305 304 304 304 304 305 306 309 315 314 313 311 309 310 310 308 308 309 309 308 308 308 307 309 310 311 312 312 312 312 311 311 311 310 310 312 311 309 310 310 310 310 310 311 311 311 311 312 313 315 313 312 315 318 318 318 320 324 326 330 333 335 334 333 331 329 328
312 313 312 311 311 311 312 312 312 312 312 312 311 309 306 303 303 304 304 305 304 304 304 305 304 304 305 306 308 315 314 312 312 309 309 309 309 309 308 308 307 307 307 308 311 312 312 312 313 312 312 312 311 311 310 310 312 311 310 311 310 309 309 310 310 310 312 312 312 313 314 311 311 314 316 317 319 322 324 327 331 334 335 333 332 330 329 327
313 313 313 312 312 312 311 312 313 313 314 314 313 312 309 305 303 304 304 305 304 304 304 304 305 304 306 307 309 314 314 312 312 309 309 310 310 311 311 311 311 310 310 311 312 312 312 312 312 312 312 312 311 311 311 311 312 311 310 311 313 314 313 310 309 310 311 313 312 312 313 315 316 313 316 319 321 324 324 326 331 332 333 332 331 330 328 327
314 314 314 313 312 312 312 312 312 313 313 313 313 313 314 310 305 304 304 305 305 304 305 305 305 305 307 310 313 315 315 314 312 310 310 312 312 313 312 312 312 312 312 312 312 312 312 312 312 312 312 312 312 311 312 311 310 312 310 310 315 318 316 310 310 311 310 312 311 311 315 324 325 313 315 322 322 323 324 324 329 331 331 331 331 330 327 325
313 314 314 313 312 313 313 312 312 312 313 313 312 313 317 315 309 306 304 305 305 304 305 305 305 307 309 312 314 314 315 314 313 311 310 311 312 312 311 312 311 311 311 311 312 311 311 312 311 312 311 311 311 311 313 311 312 314 309 312 315 313 316 313 309 312 312 312 312 311 316 322 324 314 316 322 322 323 322 322 325 327 329 331 331 329 327 324
310 312 313 312 311 312 312 312 311 311 311 313 312 314 318 319 314 308 305 304 305 305 305 306 307 310 311 312 313 314 314 314 314 313 312 312 311 311 311 311 311 311 311 310 311 310 310 311 310 311 311 311 312 313 315 316 317 315 310 317 318 312 315 316 310 311 313 312 312 312 316 320 318 314 317 321 322 323 321 321 323 324 328 330 330 328 326 324
308 310 311 311 311 311 310 310 310 309 311 312 312 315 318 320 317 312 308 305 304 305 305 306 307 310 312 313 313 314 315 315 315 314 313 312 311 311 311 311 311 311 310 311 311 310 310 311 310 310 310 310 314 317 318 320 324 321 315 316 316 312 314 315 311 309 309 311 312 311 315 319 317 311 315 321 322 323 321 320 321 321 325 329 330 328 325 324
306 308 309 310 310 309 309 309 309 308 310 312 313 315 316 317 318 314 311 309 307 306 307 307 307 309 312 312 313 315 315 315 315 315 314 313 312 312 311 311 311 310 311 311 311 310 310 311 311 311 314 316 319 319 316 319 324 325 325 320 315 313 313 315 315 310 309 312 312 313 313 316 317 311 310 317 321 321 321 320 321 320 321 325 327 326 324 323
305 306 307 308 308 308 308 308 308 308 310 312 313 315 316 314 316 316 313 313 310 309 309 308 307 312 313 312 313 315 315 315 314 315 314 313 313 311 312 312 311 311 311 311 311 312 311 310 312 316 322 324 323 320 317 320 319 318 325 323 317 317 314 315 318 313 313 314 313 314 313 314 318 314 310 312 317 320 320 319 320 319 319 321 323 323 323 321
305 305 306 307 307 308 308 307 307 309 311 313 313 315 316 313 314 316 315 314 312 312 313 310 310 314 315 314 315 315 314 314 314 315 314 313 312 312 312 311 311 311 310 311 313 312 311 312 313 317 321 322 320 320 319 321 318 315 323 322 317 318 317 317 318 315 313 314 314 313 314 316 316 317 313 310 313 316 318 319 318 318 318 319 321 321 321 321
305 305 305 305 306 306 307 307 308 311 312 313 313 315 316 313 315 317 315 315 314 313 313 313 313 314 315 315 315 315 314 314 314 313 313 313 312 312 313 311 311 312 311 314 314 311 311 315 316 317 320 321 323 323 319 318 319 319 322 321 317 316 318 318 317 317 313 311 314 315 317 316 315 321 316 308 311 313 312 315 316 317 318 318 320 321 321 321
305 305 305 305 305 305 307 308 310 312 313 313 313 313 314 314 316 317 315 314 313 313 313 313 313 313 314 315 315 315 315 314 313 313 313 312 312 312 311 311 311 312 313 310 311 314 314 315 319 322 323 321 322 323 321 318 319 320 320 318 317 318 319 317 316 320 317 311 315 318 318 318 318 325 320 311 313 313 310 312 313 315 316 317 319 320 321 321
305 305 305 305 305 307 308 310 312 313 313 313 313 314 314 314 315 316 315 315 314 313 313 312 313 313 314 315 315 315 315 316 314 313 313 311 312 311 309 311 311 314 314 309 313 320 318 317 320 319 319 319 321 323 322 321 322 323 320 317 320 320 318 319 320 324 321 314 317 321 318 324 328 330 326 317 314 313 311 312 313 315 315 316 318 319 320 321
305 305 305 305 307 308 310 312 314 314 312 313 314 314 314 314 313 314 314 315 314 314 314 313 313 313 315 315 315 315 315 316 316 315 314 312 312 311 309 311 313 313 313 312 316 316 315 319 317 314 316 319 321 321 319 319 323 325 321 317 321 319 316 322 323 324 322 314 317 321 319 328 334 332 332 319 310 311 312 312 312 312 314 316 318 319 319 320
305 305 305 306 308 310 312 313 313 313 312 313 313 313 313 313 312 311 314 316 316 316 316 315 314 313 315 315 316 317 316 315 316 315 314 313 311 310 310 310 311 311 311 316 319 314 313 316 312 314 321 318 316 320 319 317 320 327 325 318 320 322 317 319 322 326 327 318 318 320 320 334 336 330 333 321 311 314 311 311 313 312 312 314 316 318 318 320
304 305 306 307 309 311 313 313 313 313 313 313 313 313 313 312 311 310 314 319 322 322 318 315 316 315 315 317 316 317 316 315 315 315 314 313 311 310 310 308 310 312 312 314 315 313 313 311 309 315 321 319 317 320 323 321 321 328 331 324 322 325 320 318 322 326 328 323 319 314 317 337 337 328 331 326 320 321 314 312 313 312 313 313 314 317 317 319
304 305 305 306 309 311 313 313 311 312 313 313 313 313 311 311 311 310 315 325 329 324 318 315 316 315 314 316 316 315 316 315 313 314 314 313 312 311 310 310 308 311 314 312 312 315 314 312 313 318 322 322 319 320 323 323 320 322 327 326 324 325 322 320 321 321 322 321 317 315 318 329 333 331 332 325 322 324 318 317 314 309 312 313 313 315 316 318
304 305 305 305 307 309 311 311 310 311 314 313 312 312 310 310 311 312 319 327 325 317 315 315 314 313 313 313 314 314 315 315 312 313 313 312 312 310 311 313 310 308 311 310 312 315 315 315 317 322 327 324 320 323 324 321 320 322 323 324 325 325 323 323 321 319 323 321 319 324 321 318 326 332 327 320 319 321 321 322 318 310 311 312 312 313 314 316
303 304 305 305 306 307 309 310 311 311 312 313 312 310 309 311 314 318 324 324 317 313 314 313 313 313 313 313 313 313 313 313 312 312 312 312 311 310 311 313 312 312 310 308 314 317 313 314 315 321 325 321 323 330 324 318 320 325 323 321 323 323 323 327 324 320 321 317 320 330 321 314 326 331 323 318 317 320 322 323 321 313 311 311 310 311 312 313
303 303 304 305 306 309 310 311 312 313 313 313 310 308 310 312 315 320 322 319 314 313 312 312 313 312 312 312 312 312 312 312 312 311 311 311 310 311 311 310 310 311 308 307 315 317 311 310 312 317 321 322 329 330 321 319 320 319 317 317 317 318 321 325 324 321 319 315 320 329 320 313 324 330 324 317 314 319 322 321 317 310 309 311 310 310 311 311
303 303 304 305 305 309 312 314 313 313 313 310 307 309 313 317 322 323 318 313 313 314 312 311 312 310 311 312 312 312 311 311 311 311 310 310 310 309 309 308 308 311 315 314 314 314 309 308 312 315 316 321 326 318 312 315 314 312 317 319 316 319 322 323 324 322 317 316 321 327 320 313 318 327 325 318 314 316 317 316 314 309 308 310 309 310 311 311
304 303 304 305 305 306 310 311 310 310 309 308 308 312 317 320 327 326 316 311 314 314 311 311 312 311 310 312 312 311 311 311 310 310 312 311 310 310 309 310 310 314 326 325 315 313 310 309 313 314 312 314 316 313 308 309 310 313 321 322 316 318 320 320 323 319 315 320 322 321 317 311 315 322 320 317 316 314 313 313 313 311 308 308 310 311 312 312
307 306 305 306 307 308 308 307 309 308 308 311 311 315 323 323 322 323 317 313 315 314 311 309 310 310 310 312 312 310 310 311 310 310 313 311 311 312 311 314 315 315 322 321 314 316 316 314 312 311 311 311 314 316 311 309 314 316 319 320 316 316 318 318 319 317 317 320 316 314 314 312 317 320 314 314 315 312 310 310 310 310 308 308 310 311 312 312
308 310 309 309 312 313 311 310 309 309 311 314 312 317 327 325 319 320 322 318 313 312 310 308 309 309 310 312 311 309 310 310 309 310 311 310 311 315 313 313 313 312 315 314 312 317 321 320 314 310 311 311 313 318 315 314 316 314 315 319 318 316 316 318 317 314 316 318 314 312 314 315 319 317 312 313 313 310 310 309 309 308 307 309 311 311 311 311
309 311 311 313 316 315 314 314 311 311 314 315 314 316 319 320 319 318 321 319 312 311 309 308 310 310 309 311 310 309 311 310 309 310 311 311 311 315 316 310 308 312 318 314 313 316 316 318 317 313 311 310 312 315 317 321 316 312 315 315 316 320 319 318 318 314 314 317 314 311 313 321 321 313 312 312 308 309 310 309 309 307 306 309 311 311 312 311
312 313 312 314 316 314 315 315 312 311 311 314 321 321 316 318 321 317 317 317 313 311 309 308 311 312 312 313 311 309 309 310 310 312 313 312 311 313 314 310 308 313 317 314 315 314 310 313 318 312 308 308 310 309 311 317 314 309 311 312 313 320 320 316 313 314 316 315 315 313 315 323 320 312 312 311 309 309 308 307 308 307 306 307 309 310 311 312
312 314 313 314 315 316 315 313 312 309 309 318 324 321 320 321 318 314 314 313 309 309 311 312 313 313 312 314 315 311 308 308 310 314 314 311 310 311 310 311 309 310 312 314 316 314 310 315 319 312 308 309 309 308 307 310 314 311 309 312 314 314 319 317 310 311 314 314 316 315 314 318 316 313 315 314 312 310 308 307 307 306 307 307 307 308 309 310
310 312 314 316 316 317 314 311 311 307 309 321 323 318 321 320 312 312 313 309 308 309 312 314 312 310 309 312 316 314 309 309 309 311 313 311 310 311 311 311 309 309 310 309 313 314 310 317 321 313 310 310 306 307 308 306 310 314 312 314 313 310 318 320 314 315 314 314 319 317 313 314 316 316 316 313 311 310 310 308 306 306 306 306 307 307 308 309
308 310 314 316 315 313 311 309 310 310 314 325 326 320 319 315 308 309 309 306 308 311 313 312 309 309 309 310 314 313 309 311 311 309 313 313 309 309 311 310 308 309 308 306 310 312 309 315 321 314 309 311 308 309 313 309 307 310 312 312 312 315 320 318 315 318 314 312 320 319 312 313 318 320 316 311 310 310 310 309 308 307 306 305 307 307 308 309
308 311 314 313 311 310 309 309 310 313 318 324 326 322 316 314 310 307 307 307 308 310 311 311 308 308 310 310 312 312 308 309 310 308 310 311 309 307 308 309 309 308 306 306 311 312 310 312 318 315 309 309 312 312 316 317 309 309 312 311 314 320 321 315 314 317 315 313 318 317 312 314 318 318 315 312 312 311 309 310 310 307 305 305 306 307 309 309
307 312 315 312 310 310 309 309 311 316 316 316 322 322 313 310 310 306 307 308 308 310 311 310 309 308 310 310 309 309 309 309 309 308 309 309 307 307 307 307 308 308 307 309 313 314 312 309 314 322 314 309 314 313 315 318 312 311 315 314 313 312 311 311 311 311 313 316 318 316 314 317 318 314 313 312 315 313 310 310 309 305 304 306 306 307 309 309
308 313 315 311 310 310 308 309 312 317 319 314 314 316 310 307 309 307 307 308 308 308 309 311 311 312 312 311 309 308 309 310 309 308 308 307 306 306 307 306 306 307 310 314 315 314 313 311 315 322 316 314 318 313 310 312 310 312 315 313 313 313 311 312 311 311 311 313 315 314 314 320 318 313 314 316 315 313 307 306 307 305 305 306 307 309 309 309
307 311 313 310 310 310 308 310 309 310 316 312 308 309 308 307 308 307 306 307 308 307 308 310 311 312 314 311 309 308 308 309 309 308 308 307 307 307 306 305 305 306 309 313 312 310 312 315 315 316 315 315 314 308 304 305 308 311 312 310 313 316 316 315 316 317 312 309 311 312 314 321 319 314 316 315 310 307 304 304 304 304 305 306 307 309 309 309
305 307 310 310 311 309 308 312 312 312 314 310 306 306 307 306 306 307 307 307 307 307 309 310 308 309 310 308 307 307 307 308 308 308 308 306 306 307 306 306 308 308 311 314 312 310 312 314 312 315 319 317 312 308 305 306 309 309 308 308 311 314 315 317 319 318 313 311 313 312 313 321 321 315 310 306 303 304 304 305 305 305 306 307 308 309 309 309
304 307 309 309 310 310 309 310 313 316 315 311 310 309 307 306 306 307 307 306 307 307 309 310 307 306 307 306 307 307 306 307 307 306 306 305 306 306 305 306 309 310 312 314 312 308 311 316 314 313 317 316 313 314 312 312 312 310 308 307 308 311 312 312 314 312 310 311 313 313 315 319 318 314 308 304 304 304 304 305 306 306 307 308 308 309 308 308
305 307 308 306 307 309 309 308 310 313 314 312 313 312 309 308 307 307 307 306 305 305 307 308 305 305 307 306 308 310 307 306 306 306 308 309 308 306 304 306 308 309 312 312 309 307 309 315 314 312 313 312 312 314 316 316 312 308 308 306 306 311 311 310 311 310 311 312 310 313 318 315 312 312 311 310 309 307 305 305 306 307 308 308 308 308 308 308
307 308 308 308 307 305 306 305 305 310 311 310 311 310 308 309 308 307 307 305 304 304 304 305 304 306 309 308 311 312 309 306 306 309 313 313 311 307 304 305 306 307 310 308 307 308 310 311 312 313 314 312 311 312 313 312 309 308 308 306 306 310 310 310 311 309 313 314 310 313 315 309 308 311 311 313 312 309 307 306 306 307 307 308 308 307 307 307
306 308 308 308 307 305 307 306 304 305 307 307 308 308 308 310 310 308 307 305 304 304 304 304 304 306 308 309 310 309 308 308 308 310 310 309 309 308 304 303 305 305 307 305 304 310 312 309 310 312 312 310 310 309 308 307 308 309 309 308 309 310 310 310 310 310 312 310 309 314 313 308 310 312 311 313 312 309 307 305 305 306 307 307 308 307 307 307
305 305 305 305 304 305 307 308 305 305 306 307 308 307 306 309 310 308 307 305 304 305 305 305 305 305 305 307 308 308 308 309 307 308 307 305 308 310 306 304 304 302 303 303 304 308 309 309 308 307 309 310 308 307 306 306 308 308 309 310 310 311 309 308 310 312 311 308 308 314 315 312 313 314 312 311 308 307 306 306 306 306 306 307 307 306 307 307
303 305 304 304 303 303 305 305 304 305 308 309 310 307 304 306 307 305 304 304 305 305 305 306 306 305 304 308 310 310 309 307 305 306 306 304 305 308 307 306 304 301 301 303 305 305 307 311 310 306 307 308 308 308 307 306 307 307 308 309 309 310 309 308 311 312 310 308 308 309 310 311 312 314 313 308 304 304 306 306 306 306 307 307 307 306 307 307
302 304 303 304 305 304 305 303 303 307 309 308 308 306 303 304 305 303 303 303 305 306 305 305 306 304 305 310 312 309 309 310 306 305 305 305 306 306 306 305 305 303 302 303 305 303 304 310 310 306 305 306 307 310 308 307 308 307 307 308 307 307 307 305 306 309 308 307 308 306 306 309 307 305 306 306 305 306 306 306 306 306 307 307 306 306 307 306
301 301 301 304 306 304 304 301 301 307 309 306 307 307 305 304 302 302 303 302 302 303 303 304 305 304 304 308 308 305 305 308 307 304 303 304 304 305 305 304 303 303 304 304 304 303 304 307 307 305 304 305 306 308 308 307 307 304 305 307 306 306 309 307 306 307 308 307 307 305 305 308 306 301 302 305 305 305 305 305 306 306 306 307 306 306 306 306
300 300 301 303 303 302 303 302 301 305 305 302 304 305 304 303 300 300 304 303 300 300 301 301 302 304 304 304 304 302 300 302 303 303 302 302 302 302 302 302 300 301 304 305 304 304 306 305 305 306 304 303 305 307 307 306 306 305 306 308 307 306 308 308 307 307 307 306 306 306 306 307 307 304 306 308 305 304 304 305 305 306 306 306 306 305 304 303
Wind_Speed
9 9 8 6 5 6 7 8 9 10 11 11 11 10 10 9 7 6 5 4 3 3 3 3 4 4 5 6 7 8 9 9 10 13 14 8 4 8 10 10 11 11 10 9 8 5 3 3 3 5 5 4 2 1 2 4 4 2 2 3 1 3 3 4 6 4 3 4 7 12 15 2 2 5 12 12 16 21 15 11 11 6 1 9 14 21 29 25
9 8 7 5 5 6 7 8 9 10 10 11 10 10 9 8 7 5 4 3 1 2 3 3 4 4 5 6 7 8 9 10 11 12 11 7 6 8 10 12 13 13 10 8 6 3 2 3 4 4 5 4 1 2 2 3 6 4 3 2 3 5 4 6 7 4 4 5 10 13 14 1 3 2 9 9 9 15 12 8 9 8 10 12 16 26 28 24
8 7 6 5 5 6 7 7 8 9 10 10 10 10 9 7 6 4 3 2 1 2 2 3 4 4 5 6 7 8 9 10 8 7 6 5 6 8 11 14 14 13 10 8 5 3 3 4 4 4 4 3 2 2 1 2 5 4 2 1 5 6 5 8 9 10 11 10 11 12 11 1 5 2 6 8 7 8 7 9 10 12 16 17 22 29 27 25
7 6 5 5 6 6 7 7 8 9 9 9 9 9 8 7 6 4 3 1 1 2 2 3 4 4 5 6 7 7 9 7 3 3 4 3 1 6 10 14 14 13 10 8 6 4 4 4 4 3 3 2 2 1 1 3 4 2 3 4 6 3 3 10 11 12 14 12 12 11 7 2 4 2 9 14 9 1 6 18 19 19 23 24 29 31 26 26
6 6 6 6 6 7 7 8 8 9 9 9 9 9 8 7 6 4 2 1 2 2 3 3 3 5 5 6 6 5 7 4 3 5 4 3 3 5 9 14 15 12 11 9 6 5 3 4 4 2 3 2 1 1 2 6 4 1 4 7 8 4 3 12 11 8 9 10 11 9 3 4 3 3 16 18 9 5 12 22 24 24 26 27 32 32 28 28
6 7 7 7 7 8 8 9 9 9 9 8 8 8 7 7 6 4 3 2 3 3 3 3 3 4 4 5 4 3 3 3 3 4 2 2 2 6 8 12 13 12 11 9 7 4 3 4 4 3 3 1 1 2 3 4 4 2 5 6 11 9 6 14 13 8 10 10 10 8 5 4 6 4 16 15 6 5 10 18 21 23 26 28 33 33 31 29
7 8 8 8 9 9 9 10 10 10 9 9 8 7 7 6 6 5 4 3 3 3 3 3 3 4 3 3 3 3 4 3 6 5 2 1 2 5 8 10 12 12 11 9 7 5 4 5 4 3 3 1 2 4 3 3 5 4 4 5 10 12 11 17 17 15 15 13 14 13 11 4 9 6 12 14 7 3 6 13 19 23 28 30 33 34 32 30
8 8 8 9 10 10 11 11 11 11 10 10 9 8 6 5 5 5 4 3 3 3 3 3 3 3 3 2 4 5 4 3 6 6 3 2 4 6 9 11 12 12 11 9 7 6 6 5 4 2 2 0 2 3 3 2 2 5 5 6 8 10 14 18 20 21 17 14 16 14 10 6 10 7 10 14 10 6 6 11 20 26 32 33 34 35 32 30
7 8 9 10 11 12 12 11 11 12 12 12 11 10 7 5 4 4 4 4 3 3 3 3 3 3 3 3 5 4 1 3 6 6 2 1 3 6 9 10 11 12 11 10 9 9 7 5 3 1 1 3 2 3 2 0 2 5 7 7 7 12 17 19 20 20 14 11 11 7 6 2 6 5 7 13 10 6 7 15 23 29 34 36 36 35 33 31
6 7 8 9 11 12 12 12 11 12 12 13 13 12 9 5 3 4 4 4 4 4 3 3 4 4 3 4 4 2 2 2 6 5 4 4 4 4 6 6 8 10 11 12 12 11 6 3 1 1 3 3 2 4 2 2 2 4 6 9 11 16 18 13 13 14 9 8 8 7 5 1 5 4 5 9 9 9 14 20 25 31 35 37 35 35 33 29
5 7 7 8 9 11 12 12 12 12 12 13 13 13 12 7 4 3 4 4 4 3 3 4 4 4 4 5 3 1 1 2 4 5 7 7 7 7 6 7 7 8 11 12 11 6 2 1 2 4 2 3 4 4 5 3 5 7 7 9 12 13 11 8 8 10 5 4 8 8 4 2 2 3 3 6 12 15 20 24 27 32 35 35 35 35 32 28
4 5 6 7 8 10 11 11 12 12 12 14 13 12 12 10 6 4 4 4 3 3 3 3 4 4 5 6 5 2 1 1 2 4 7 7 7 7 8 9 8 8 7 7 5 1 2 4 7 7 4 4 5 2 3 6 8 8 4 4 9 8 6 5 5 4 1 1 4 5 0 5 2 3 0 9 18 19 21 26 28 32 33 34 35 34 31 28
4 4 5 6 6 8 9 10 11 11 12 13 14 13 11 10 8 5 4 4 3 3 3 3 4 5 6 6 3 2 1 1 1 3 5 6 6 6 6 6 6 5 3 2 1 3 4 7 8 9 9 5 3 2 5 9 7 6 2 1 6 7 6 7 6 3 1 1 2 3 2 6 7 5 2 13 20 20 22 24 27 30 31 33 35 34 31 29
4 4 5 5 5 6 8 9 10 10 11 13 14 14 11 9 8 7 5 4 3 3 3 4 5 6 6 3 1 2 4 2 1 3 3 4 4 3 3 4 3 2 1 3 4 6 6 6 7 9 9 7 6 5 6 7 3 3 2 2 3 2 4 8 5 4 2 3 5 4 2 6 8 7 6 15 19 22 23 23 24 27 30 33 36 35 33 31
5 5 5 4 4 5 6 8 9 9 10 12 14 14 12 8 7 7 5 4 4 3 4 5 5 7 8 5 2 5 5 3 1 1 2 2 3 2 3 2 2 3 4 6 7 8 6 6 6 5 6 6 5 3 4 4 4 3 2 2 4 2 4 8 4 4 1 4 6 5 1 6 7 6 10 16 18 22 22 23 25 26 30 34 37 37 35 33
7 6 6 5 5 5 5 6 8 9 9 11 13 12 11 8 6 6 5 5 4 4 4 5 5 6 6 3 1 3 4 4 3 1 3 3 3 2 2 2 3 3 5 8 8 6 3 3 3 3 3 2 0 3 4 4 4 4 3 0 2 3 3 4 4 6 2 2 4 2 2 5 5 4 10 16 19 21 20 22 25 27 31 35 37 37 36 34
7 7 7 7 6 6 6 6 6 8 9 11 12 10 9 9 6 4 5 5 5 5 6 6 6 6 4 1 2 4 6 7 4 3 3 2 2 2 1 2 2 4 8 7 5 2 2 1 1 2 2 3 3 4 3 3 3 4 3 2 2 1 1 2 4 6 5 1 3 1 2 7 6 5 3 12 16 18 18 21 24 26 29 33 35 36 36 35
7 8 8 7 7 7 6 6 5 6 8 10 11 9 8 10 7 4 4 6 6 6 6 5 4 3 2 1 3 6 9 7 5 3 3 3 3 2 2 4 4 7 8 4 2 2 2 1 1 1 4 4 3 5 2 3 2 2 1 2 1 2 0 2 3 2 6 3 3 2 3 9 8 7 3 7 13 16 18 20 21 23 26 29 31 34 35 36
7 7 7 7 8 7 6 5 4 5 7 9 10 8 6 11 8 3 5 9 8 5 3 3 3 2 3 6 7 8 7 5 3 3 4 4 3 3 3 4 6 7 6 3 2 4 2 2 3 2 3 4 2 4 5 7 6 5 4 4 3 0 2 5 5 4 2 3 1 3 5 7 6 6 4 3 10 16 17 14 15 18 21 24 27 31 33 36
7 6 7 6 6 6 5 4 3 4 7 9 10 7 6 10 6 2 10 15 10 6 6 7 9 10 10 9 7 6 5 2 3 2 3 4 4 3 3 4 5 4 4 0 2 3 4 3 0 3 5 6 6 5 5 4 4 5 5 5 4 2 3 5 4 5 2 2 1 2 5 7 6 7 5 4 6 11 14 12 13 16 18 22 26 30 33 35
7 7 6 6 5 4 2 2 3 4 7 8 8 6 6 8 5 5 13 14 11 10 10 9 9 13 12 8 7 8 7 2 4 3 3 5 6 3 2 2 1 2 3 1 2 2 4 2 4 7 9 7 5 5 4 4 4 4 5 4 1 2 3 5 3 4 4 1 3 1 1 7 7 7 5 5 5 7 14 16 16 18 19 21 25 29 32 33
6 6 6 5 3 2 1 2 3 5 7 6 7 7 8 9 6 7 9 10 14 14 9 7 9 13 12 8 8 8 5 3 4 5 5 6 7 5 3 2 4 1 3 2 1 4 4 3 8 8 6 4 3 5 6 5 5 4 3 3 1 2 3 5 3 5 4 1 4 3 4 6 7 7 6 4 5 7 15 18 18 22 24 25 27 29 31 33
5 5 4 4 2 0 0 2 3 5 5 5 6 8 8 8 7 10 9 7 12 12 8 7 8 11 11 9 7 7 5 4 4 5 6 8 9 7 5 4 4 2 1 2 2 1 2 5 6 3 6 6 3 3 6 4 2 3 3 2 2 3 1 3 4 6 4 2 1 2 3 6 6 6 6 4 2 3 8 11 13 19 24 28 31 32 33 35
5 4 3 3 2 1 1 2 3 3 1 2 4 5 5 8 8 10 9 5 6 7 5 4 5 8 10 7 5 4 4 6 6 4 5 10 10 5 4 4 4 1 2 2 6 4 5 7 5 5 5 5 2 2 5 4 1 2 2 4 2 2 3 4 4 5 4 3 3 4 5 5 4 5 5 4 5 2 2 2 6 12 19 24 27 30 34 37
5 3 3 4 4 4 3 3 3 2 0 1 2 4 6 9 10 9 6 2 3 5 3 1 3 5 5 4 5 5 3 5 8 7 6 9 10 5 2 3 3 1 4 4 6 3 6 6 3 4 3 2 4 2 3 6 2 4 3 7 6 5 4 2 3 5 5 4 4 4 2 5 5 5 6 4 7 6 4 3 5 8 12 18 23 28 34 36
5 4 3 4 6 6 4 3 4 3 2 3 4 7 8 10 10 7 2 3 2 4 2 0 1 1 3 4 5 4 1 3 6 8 8 9 10 6 2 1 1 0 4 5 3 2 4 2 3 4 4 4 3 3 5 6 5 2 4 6 6 6 4 2 1 3 2 3 4 2 2 4 5 5 6 4 6 8 8 7 8 8 9 15 21 26 31 35
5 4 4 5 7 8 6 5 5 5 4 5 7 10 10 10 7 3 1 4 2 3 2 1 1 1 2 2 3 5 1 4 3 4 7 9 10 7 3 2 1 0 3 3 1 2 3 2 5 5 5 5 2 3 5 7 7 2 5 6 8 6 4 4 4 3 2 3 4 4 3 2 4 5 5 5 6 8 8 8 10 11 9 9 14 19 26 33
5 4 4 5 6 7 7 6 7 6 5 8 10 11 10 7 4 1 3 4 3 3 2 2 2 2 3 1 6 5 1 3 2 1 5 9 9 5 3 4 4 3 1 4 3 5 2 2 2 2 5 2 3 4 6 9 5 5 5 8 6 5 5 5 5 3 0 1 3 5 2 1 4 6 5 5 4 6 8 8 9 12 15 14 13 16 20 27
6 5 4 5 6 5 5 5 6 6 7 10 11 10 8 5 2 2 5 2 3 2 2 2 2 3 4 1 4 6 3 3 1 1 3 8 8 3 1 3 6 4 1 4 4 6 3 4 4 3 4 3 6 4 7 9 3 4 6 7 5 5 5 4 5 3 3 2 4 6 1 1 4 6 5 3 2 5 7 7 7 10 18 19 16 16 16 21
6 5 5 5 5 5 5 5 6 7 9 11 10 8 6 3 1 4 2 1 1 2 3 2 2 3 3 2 1 3 2 3 2 1 3 5 6 3 3 1 4 5 1 3 2 6 4 3 2 3 4 5 4 2 4 5 3 3 5 6 6 6 5 4 3 4 4 1 6 7 2 2 2 5 4 2 1 3 5 6 7 10 16 15 11 10 10 16
7 6 5 4 4 5 5 5 7 8 9 9 8 6 3 1 3 5 1 2 0 3 4 2 3 4 3 1 2 4 1 3 4 1 1 1 1 1 3 1 2 4 3 5 3 6 6 3 3 3 4 3 6 4 1 3 4 4 4 5 4 3 4 4 4 3 3 3 6 5 1 4 2 4 3 4 5 4 4 5 7 9 14 13 7 5 4 9
7 6 4 2 2 2 3 4 6 7 7 7 6 2 2 1 2 2 1 2 1 2 2 2 3 4 4 2 2 4 2 2 5 3 1 1 1 1 1 3 2 2 3 3 2 6 5 4 4 4 4 3 5 3 3 4 5 5 4 4 3 2 3 3 3 1 2 5 3 2 1 2 4 5 4 6 7 6 4 4 5 7 12 12 11 7 5 2
7 4 1 2 3 4 5 5 6 4 4 6 4 1 5 3 1 3 2 2 1 2 1 1 2 3 3 4 3 5 3 1 3 3 0 0 1 3 3 1 3 1 1 3 1 4 4 6 5 3 3 2 5 4 1 1 1 4 4 4 3 2 2 1 3 1 3 4 2 2 1 1 3 3 4 6 8 7 5 4 4 5 8 13 17 11 7 4
5 2 1 1 3 4 5 7 9 6 6 6 1 2 4 1 3 2 1 2 2 2 2 1 3 4 5 4 2 4 3 1 3 4 2 2 2 3 4 3 1 3 2 1 1 0 0 5 4 2 2 1 3 5 5 5 3 3 4 5 4 4 4 3 3 2 3 2 2 2 1 2 2 2 5 6 6 6 7 4 4 6 8 20 27 20 13 8
4 1 2 1 2 4 5 7 9 8 8 6 3 4 2 3 3 1 2 3 1 2 3 3 4 4 4 3 4 4 3 1 4 5 3 2 1 2 1 2 2 3 4 1 2 1 1 5 6 4 3 1 1 2 5 6 2 1 3 5 2 4 4 2 2 4 3 1 1 1 2 3 2 3 6 5 6 5 5 5 9 11 13 26 32 28 25 18
4 3 3 3 3 5 6 7 9 8 7 5 5 3 2 4 2 2 2 1 0 0 2 4 4 4 3 4 4 4 2 1 3 4 3 1 1 2 1 2 2 2 5 3 3 1 1 4 6 4 3 1 1 1 3 3 2 1 2 3 4 4 7 4 1 1 3 1 3 1 2 2 1 1 4 5 5 4 4 7 11 13 18 25 27 27 29 27
3 3 4 2 3 5 6 7 7 6 5 3 5 1 4 2 2 3 1 3 1 1 4 2 2 2 1 2 2 4 3 2 3 3 2 2 0 2 3 2 2 0 2 3 3 2 2 4 6 2 0 4 5 3 4 3 4 4 2 5 3 3 5 4 1 3 4 2 4 1 2 2 1 1 3 4 2 3 6 5 8 13 18 21 21 23 26 27
4 2 1 1 1 4 5 7 7 4 2 3 2 2 2 1 2 1 3 3 1 3 5 1 1 1 2 1 2 4 3 2 2 3 2 1 1 3 4 2 2 5 3 3 2 1 2 2 7 2 2 5 7 4 3 5 3 4 4 3 3 2 1 1 2 1 1 2 3 3 2 2 3 4 3 3 3 1 5 6 5 9 13 16 18 21 24 26
6 1 1 1 2 4 5 6 6 3 2 3 1 2 1 1 2 4 7 4 1 3 2 2 1 1 1 2 2 3 2 0 0 1 1 0 1 3 6 3 4 9 7 4 3 1 2 1 5 4 2 4 5 3 1 4 3 3 2 3 2 2 3 2 2 3 3 2 2 3 3 2 5 5 3 5 5 3 4 5 5 7 11 14 15 19 23 26
6 1 2 1 1 2 5 6 4 2 3 1 3 2 1 2 3 6 9 6 1 1 0 2 2 1 1 2 2 1 1 1 2 1 1 1 1 2 5 5 3 8 9 3 3 1 2 2 3 5 4 2 1 1 3 3 1 1 2 2 1 2 2 1 1 1 3 3 3 1 2 4 5 3 3 5 6 5 3 3 5 7 10 13 15 17 21 23
6 2 1 2 2 3 5 3 2 2 3 1 2 1 2 2 3 6 9 8 3 0 1 3 4 2 2 2 2 1 0 1 1 1 2 0 1 1 4 6 4 5 6 5 4 2 1 2 3 3 5 1 4 4 3 4 3 3 2 2 3 3 2 2 1 2 1 3 4 4 2 6 4 3 4 5 5 4 2 3 4 6 9 11 14 16 19 21
7 2 2 4 4 4 3 1 2 2 3 2 1 2 4 3 2 4 7 8 5 2 1 2 3 2 2 2 2 3 2 0 1 1 1 1 2 2 5 11 7 3 2 2 2 1 1 3 1 3 4 4 7 4 1 2 3 4 2 1 3 3 4 4 3 3 0 1 2 4 2 5 5 4 4 3 2 1 3 3 3 6 8 11 13 15 17 19
9 6 5 6 6 5 2 1 3 3 0 1 3 3 3 2 1 2 4 5 4 2 2 1 1 1 1 1 1 3 2 1 2 1 1 2 3 1 7 14 8 2 3 2 2 1 1 2 1 3 4 4 6 4 3 3 4 4 1 1 3 2 3 4 4 3 2 3 2 2 1 5 5 3 2 3 2 3 5 6 6 8 9 11 13 15 16 17
12 10 6 5 8 6 0 1 1 1 2 4 4 3 3 2 0 2 2 2 3 1 1 1 0 0 0 1 2 2 1 1 1 0 1 2 1 3 10 15 11 5 4 2 2 1 1 0 2 2 4 5 6 5 5 5 3 2 2 2 2 3 5 3 1 3 1 3 4 4 4 5 4 3 4 4 3 5 8 8 9 9 10 11 13 14 14 13
10 6 4 7 8 2 4 3 3 2 1 3 3 3 3 2 2 3 1 1 3 1 2 1 1 0 1 2 3 3 2 1 1 1 2 1 2 3 9 13 11 7 4 5 3 1 1 1 3 2 2 3 2 3 3 2 1 0 2 3 0 4 5 2 1 3 1 3 3 4 4 3 4 5 5 4 3 5 7 9 10 9 10 11 11 11 11 11
5 2 3 8 10 10 10 8 5 2 1 2 1 2 2 1 4 5 2 2 4 4 3 1 2 2 3 4 3 3 3 2 2 2 2 2 2 3 7 7 9 8 6 11 11 2 2 1 2 5 5 6 5 6 5 2 2 1 1 3 3 1 3 3 4 3 4 3 2 5 4 1 5 6 5 5 2 2 4 7 9 8 8 9 9 8 8 9
3 1 2 4 6 8 9 10 10 5 0 1 0 1 2 2 4 4 3 2 4 5 4 3 3 2 1 2 3 0 2 3 3 2 1 2 3 4 6 1 5 9 8 10 12 4 4 2 2 4 5 6 6 6 4 1 3 5 4 5 6 2 3 5 4 4 4 4 4 7 5 4 6 7 6 6 4 4 3 3 5 6 6 6 6 6 6 7
4 2 3 3 2 1 3 7 9 5 2 1 1 1 3 3 3 2 3 4 4 5 3 2 5 3 0 2 3 1 1 2 2 1 0 1 2 4 5 1 2 9 8 6 7 4 4 2 3 3 4 6 5 6 4 1 4 4 5 7 8 5 6 7 7 6 6 6 7 6 7 7 7 6 7 7 6 5 4 1 2 2 5 6 5 4 5 7
6 3 4 5 2 1 2 6 6 3 4 3 2 2 3 3 3 2 2 3 4 5 4 1 3 5 3 3 4 2 1 2 1 2 2 0 2 1 3 2 1 7 9 4 3 3 3 2 3 3 3 6 5 6 4 4 4 4 5 8 7 6 8 8 7 6 7 8 8 5 8 9 7 7 8 6 6 6 4 2 1 3 5 5 4 3 5 7
7 5 5 5 3 3 5 6 3 2 3 4 3 2 2 2 3 4 2 2 2 4 4 3 3 4 3 4 4 1 4 6 3 1 4 2 2 1 0 2 3 4 7 3 1 1 1 2 2 1 2 6 5 5 5 5 5 5 7 7 5 5 6 5 4 4 4 6 7 5 6 8 7 7 7 5 5 5 6 5 3 4 5 4 3 3 4 6
7 7 8 5 3 5 6 4 3 3 3 4 2 2 2 1 3 3 2 4 6 3 3 1 2 1 3 4 2 2 6 4 5 4 6 6 2 3 3 2 4 1 4 1 1 1 1 1 1 1 3 5 3 5 8 5 4 7 8 6 5 6 6 5 5 5 6 6 6 4 5 7 7 7 6 5 4 6 8 7 4 4 5 5 3 2 4 6
9 7 7 3 1 5 5 3 3 3 1 2 2 2 2 3 5 3 0 4 11 11 6 3 2 2 2 3 2 8 14 9 6 5 4 5 5 5 6 5 4 2 1 1 1 1 2 2 0 2 2 3 3 6 6 3 5 8 7 8 11 10 8 6 5 5 7 6 5 5 6 6 5 7 7 6 6 6 6 5 2 2 5 5 2 3 5 7
Wind_Direction
331 334 336 338 342 347 352 352 353 354 350 348 346 343 341 338 332 320 308 307 304 287 258 245 250 253 263 273 278 282 284 282 278 273 275 287 284 251 231 216 210 205 196 189 196 206 219 217 180 169 172 167 190 196 198 226 198 164 105 108 218 201 194 196 196 204 211 284 291 322 344 20 69 81 123 124 132 126 132 140 147 176 200 188 180 161 161 157
333 335 337 344 351 355 359 358 357 354 350 351 352 349 347 346 343 339 330 322 304 261 246 253 259 264 278 287 293 297 299 297 289 281 284 287 263 240 217 211 206 200 191 185 193 183 163 169 166 169 170 163 137 142 149 193 184 165 108 132 220 206 211 211 210 242 242 284 299 310 326 331 131 101 132 127 125 122 117 114 130 127 124 160 165 161 163 160
339 340 348 1 3 5 7 4 358 353 352 354 356 354 353 352 350 353 357 351 257 236 242 263 265 279 290 297 304 308 314 313 304 299 313 309 259 229 208 206 202 196 187 184 187 154 138 140 155 164 156 147 110 132 113 150 190 197 134 192 244 218 233 250 242 258 270 283 294 306 318 198 144 164 151 134 124 121 131 140 140 141 145 157 162 163 166 165
353 359 10 21 17 17 14 8 1 356 355 355 357 0 359 357 357 359 5 355 259 244 243 264 272 289 295 304 312 318 330 333 355 6 358 2 246 203 198 198 198 196 186 188 188 156 141 135 150 154 128 109 93 157 244 189 194 183 156 204 236 202 242 265 259 271 287 294 282 292 320 135 137 181 159 139 123 71 207 178 174 174 165 160 162 165 169 171
15 23 31 36 31 27 20 13 7 2 358 356 0 3 4 3 0 356 347 313 276 266 264 275 283 295 298 311 319 328 352 15 38 14 15 43 102 154 183 195 197 195 188 191 188 158 150 145 145 118 88 59 81 118 237 206 184 162 221 229 238 213 244 275 280 291 301 315 296 292 314 161 142 168 162 153 151 196 213 194 187 184 177 168 166 168 173 177
37 43 45 44 36 29 22 16 9 5 0 359 1 2 8 8 3 356 339 312 294 285 283 291 291 299 305 321 338 338 357 29 2 3 29 34 104 148 177 195 195 194 195 197 187 155 148 146 138 100 74 34 154 195 243 225 185 212 266 251 253 243 239 276 281 278 284 304 299 290 295 172 131 152 176 180 189 184 214 205 193 187 182 175 170 171 176 179
51 51 47 41 35 28 20 17 12 8 4 1 1 2 8 8 7 359 342 329 311 300 296 305 298 305 324 334 360 332 305 344 0 356 328 290 171 175 183 194 198 200 204 204 186 154 144 143 144 115 86 15 222 215 260 267 193 202 271 273 269 258 249 273 280 280 278 277 280 285 296 215 156 164 187 204 230 273 264 212 193 183 176 173 172 175 178 177
54 49 44 39 34 28 23 21 17 16 12 8 5 2 4 2 6 0 350 341 324 318 310 314 304 310 336 338 348 332 308 347 355 344 325 219 197 203 196 198 204 207 209 204 178 149 152 154 162 136 109 235 217 225 257 292 223 198 237 264 277 268 263 278 285 284 279 273 278 280 286 234 182 172 181 209 237 286 271 200 187 178 171 173 175 177 176 176
50 44 40 37 33 29 26 24 23 23 21 19 14 8 3 358 1 360 351 344 331 333 328 318 312 316 326 331 345 349 48 31 354 348 1 169 193 204 206 211 210 207 202 190 165 153 159 159 173 181 231 258 257 265 269 264 254 204 220 262 273 274 280 286 284 280 282 279 269 249 271 251 164 158 186 213 236 257 209 182 181 175 172 175 177 177 176 177
41 38 36 33 33 31 28 28 27 26 24 24 21 17 13 2 354 352 347 342 331 334 337 325 316 313 317 327 348 33 108 26 359 25 78 102 112 143 177 188 191 192 184 170 156 151 140 131 145 340 280 274 275 266 241 164 239 243 254 276 271 277 284 281 278 285 295 275 237 202 234 211 139 158 212 219 216 201 176 168 175 176 175 176 178 178 178 181
30 31 28 27 30 30 30 30 29 28 26 24 21 21 22 18 3 351 351 346 335 334 332 325 320 311 313 315 314 59 123 340 4 59 93 98 95 98 108 115 127 145 153 152 151 150 127 182 301 332 295 294 311 261 222 222 286 297 298 294 288 295 289 267 272 287 298 252 223 198 205 4 116 175 235 194 180 183 171 164 172 175 175 177 177 178 181 185
13 18 19 20 22 25 27 29 30 30 27 23 21 20 21 22 16 0 357 352 341 338 331 326 321 312 313 302 278 245 213 318 15 81 104 104 101 96 93 93 89 96 118 139 151 201 292 287 298 302 287 298 313 291 263 298 304 298 314 306 306 340 349 320 318 293 192 210 236 180 173 336 275 238 314 156 165 173 168 164 169 173 176 177 177 180 184 187
337 350 2 7 12 17 17 23 27 23 20 20 19 15 13 18 18 9 1 360 355 349 342 326 312 313 317 309 281 234 255 302 52 95 115 121 120 108 97 95 93 97 107 142 168 302 296 297 295 286 288 285 274 300 309 312 307 296 341 62 320 357 5 346 358 356 88 295 315 142 245 291 265 274 130 153 165 165 160 161 168 173 178 179 179 182 186 188
314 320 335 350 5 10 6 11 15 14 13 12 12 10 7 10 16 15 6 6 4 348 341 328 328 330 313 301 239 257 281 311 69 106 134 147 136 129 117 103 87 79 4 341 324 311 306 302 297 285 282 264 255 289 315 332 356 317 337 56 1 32 306 318 339 352 9 318 360 88 223 266 269 280 155 161 172 167 159 161 169 176 180 180 181 185 189 191
310 305 313 330 348 0 2 0 0 4 8 7 7 5 3 4 13 19 15 11 360 341 342 329 338 341 312 290 265 267 274 294 346 97 179 181 147 136 122 99 34 16 351 345 333 320 315 303 290 280 279 267 268 313 337 348 11 8 21 323 347 60 295 312 349 8 7 314 2 78 225 274 274 261 174 167 177 175 165 165 173 180 183 183 184 188 192 195
305 302 302 307 320 336 347 350 350 352 1 4 1 358 0 3 8 20 20 10 351 340 341 323 334 345 315 308 344 295 304 313 311 274 242 206 167 150 111 42 11 5 341 341 336 318 298 302 289 277 312 309 102 66 38 6 354 358 51 224 319 29 342 325 359 1 9 291 337 83 206 272 300 281 181 172 180 181 170 170 178 183 185 186 188 191 195 196
298 297 297 299 305 313 325 338 341 341 352 0 358 354 359 4 4 14 14 9 2 348 336 316 317 318 295 331 35 356 352 333 297 262 254 213 179 184 218 325 339 332 333 340 340 315 208 232 263 251 11 43 78 75 48 359 340 322 19 67 283 299 27 337 327 347 14 350 289 6 220 252 289 330 190 181 184 183 179 181 184 185 188 190 191 194 198 199
297 293 293 296 300 306 315 325 332 340 350 357 356 350 356 3 355 342 357 355 347 339 332 317 318 320 276 287 343 337 340 324 287 252 240 215 186 191 249 297 314 327 345 8 40 66 177 213 56 55 17 11 33 78 116 227 188 215 247 89 339 308 257 296 277 316 17 22 261 296 271 262 286 334 334 196 192 195 196 191 188 188 190 194 197 198 200 202
307 299 296 295 298 305 310 319 337 352 354 359 1 356 355 359 349 331 348 331 314 314 322 298 293 284 263 293 316 328 335 322 277 236 226 214 191 199 234 281 304 331 4 26 18 39 78 42 44 36 336 304 262 134 176 208 171 165 177 143 131 86 271 265 256 270 355 58 268 257 250 274 295 305 310 202 198 209 212 200 192 195 195 198 202 204 205 207
315 309 305 304 301 305 312 332 1 8 4 9 8 8 6 1 358 335 334 321 302 294 291 282 277 274 279 299 317 331 338 307 220 218 230 224 210 212 238 268 294 337 8 352 292 7 53 49 25 219 232 240 232 196 184 185 138 127 121 120 157 174 282 277 270 288 315 101 251 224 236 275 277 259 253 197 206 221 222 214 201 202 204 205 205 208 210 211
318 317 315 313 308 314 332 7 21 12 13 21 20 29 30 16 14 327 328 322 314 313 300 289 277 270 275 290 304 320 329 279 207 199 229 234 214 200 231 246 56 359 313 229 236 342 52 47 245 225 222 224 214 183 148 119 94 99 129 127 175 195 250 265 255 304 337 95 259 312 320 280 269 264 250 174 178 224 224 219 211 210 209 211 212 212 213 215
317 320 319 315 313 339 26 28 21 8 17 36 45 54 48 29 13 339 330 312 310 315 304 287 269 263 270 282 290 298 303 287 249 225 225 224 206 198 192 119 107 186 295 10 356 350 18 285 257 240 206 149 112 131 122 110 94 81 132 134 301 255 272 289 299 327 355 78 269 344 17 288 276 283 278 210 183 208 217 217 218 217 211 211 215 214 214 216
314 321 320 309 310 349 16 7 4 0 25 60 61 62 44 14 358 343 334 294 298 310 301 277 263 265 275 285 286 268 242 246 266 246 230 216 203 198 175 123 114 165 359 52 140 22 334 252 241 200 146 131 84 97 113 106 91 89 124 142 265 276 321 294 302 325 346 59 239 46 22 300 300 317 298 278 262 191 201 216 223 222 218 217 218 217 216 216
308 321 311 290 276 251 274 341 347 352 38 85 55 52 14 344 339 334 325 293 289 309 308 270 257 266 273 282 283 257 231 233 247 250 223 207 191 186 192 150 111 135 250 160 143 165 253 242 200 127 124 153 136 89 119 131 265 302 167 162 196 244 212 223 281 329 344 9 41 61 18 315 326 337 300 310 342 350 142 205 224 225 227 225 221 219 219 220
302 309 292 270 261 257 274 299 313 345 246 178 13 353 331 325 322 319 320 337 301 301 326 276 261 269 266 268 254 244 249 247 248 254 242 211 191 174 189 158 122 221 227 159 124 182 259 259 183 128 87 122 146 203 181 155 183 312 245 201 186 182 199 233 343 21 28 351 342 36 4 291 320 320 272 310 346 325 339 336 244 225 222 223 222 221 222 223
301 290 277 264 258 258 270 284 280 289 273 255 301 321 322 317 314 305 310 47 348 294 326 203 228 283 259 254 237 217 251 288 260 249 241 221 206 185 144 147 89 265 191 153 121 207 253 311 69 114 110 97 120 247 233 162 131 311 246 198 161 133 123 133 80 70 82 269 302 47 152 254 320 316 277 326 343 313 318 313 277 256 220 217 227 228 226 226
309 284 272 268 265 261 267 281 274 269 277 283 296 312 317 318 322 300 3 43 346 296 334 222 187 338 282 260 199 162 150 305 302 246 218 209 212 198 193 244 38 184 167 124 2 262 229 316 30 70 92 90 109 253 231 151 120 237 227 144 128 127 144 165 146 146 208 249 320 14 108 192 301 279 288 347 346 323 317 303 296 292 270 238 241 242 234 231
316 290 274 274 275 269 267 271 269 269 281 293 301 310 313 318 323 332 78 69 277 299 6 262 262 293 297 266 206 197 292 317 352 311 204 195 203 189 205 223 173 189 156 115 246 270 226 253 299 86 79 85 204 215 193 153 139 242 193 124 129 139 146 144 124 136 342 24 310 323 37 156 276 274 310 0 353 316 304 293 293 305 316 316 295 275 254 240
320 300 285 278 281 281 275 272 273 276 284 295 303 308 311 305 295 60 78 97 266 316 8 299 306 287 297 3 214 235 294 321 33 88 167 174 191 162 101 212 160 149 64 109 207 255 248 239 241 140 108 228 228 210 176 159 179 224 138 96 72 72 76 86 101 110 48 55 245 273 289 181 270 283 307 354 355 285 285 289 288 312 328 324 302 283 262 243
327 306 295 289 287 280 274 277 284 285 288 297 303 307 310 293 41 68 65 225 262 308 312 307 302 301 327 30 308 293 277 283 320 152 151 155 187 159 100 139 116 115 13 18 223 255 286 291 247 166 189 207 174 144 169 149 133 130 94 62 51 42 39 48 61 87 68 349 253 255 227 136 265 279 276 238 216 265 281 301 308 324 330 320 303 288 258 234
332 313 299 303 298 279 274 275 277 283 290 300 307 307 299 287 73 85 147 246 273 314 339 332 290 343 19 97 313 340 350 305 335 23 155 82 158 102 94 89 44 65 7 352 324 303 330 331 253 255 239 172 102 72 43 71 87 100 74 65 67 357 15 33 355 49 87 261 265 265 156 113 207 266 296 278 276 279 264 277 297 315 323 328 350 354 300 233
336 321 308 329 359 329 318 296 283 286 297 312 318 301 144 77 22 120 248 311 304 294 344 298 294 10 13 33 17 333 337 337 348 31 97 12 21 276 181 183 191 20 337 299 321 337 323 260 268 307 279 167 111 70 11 15 41 80 84 78 76 336 15 17 302 4 185 242 268 293 120 131 231 244 283 295 297 299 279 271 290 304 321 353 35 34 13 291
334 327 17 89 60 35 20 0 338 322 323 330 321 113 94 78 228 213 271 335 242 247 277 279 332 30 31 35 14 328 354 7 337 13 51 30 7 276 280 176 154 117 281 231 320 353 322 301 319 334 287 198 140 141 192 301 70 128 145 125 121 110 67 300 267 278 259 262 300 305 280 288 270 264 284 288 292 314 346 338 329 333 343 33 54 50 37 23
334 321 156 123 42 20 12 8 1 360 354 349 352 107 75 102 215 199 259 264 247 306 349 9 354 18 46 52 343 339 31 349 339 18 352 7 20 314 330 3 65 101 113 166 229 148 265 307 293 201 269 290 173 177 169 152 137 171 161 133 146 158 151 223 223 196 239 266 319 309 255 190 202 279 295 292 304 352 28 17 27 26 31 60 65 60 55 50
350 324 255 266 7 354 350 354 355 359 354 354 54 84 108 220 241 178 228 253 284 326 329 11 51 50 22 354 328 3 63 301 349 33 15 20 48 278 317 332 322 101 118 157 245 176 157 261 260 263 285 272 201 195 139 115 104 237 135 111 159 185 152 169 188 170 177 174 256 257 235 217 201 292 300 313 323 355 46 58 58 45 48 64 65 62 60 59
4 353 316 297 308 329 339 338 341 349 344 2 64 76 187 210 220 171 203 278 80 145 335 357 49 70 355 329 330 346 35 3 359 31 8 351 200 244 237 283 297 131 138 169 214 166 94 270 281 313 321 339 337 203 126 127 184 178 128 162 207 169 123 117 192 58 78 142 252 248 231 281 356 322 313 335 321 324 11 45 56 49 53 61 61 63 64 64
349 347 342 314 296 322 333 334 341 342 333 39 85 169 224 205 192 185 263 318 271 101 78 33 9 72 327 322 306 312 351 20 4 18 341 322 349 314 319 309 307 125 169 194 217 198 160 269 294 338 85 332 351 46 55 51 122 126 182 207 186 108 93 109 157 12 46 197 270 295 192 234 115 181 290 310 299 358 359 7 44 51 56 59 58 64 68 68
342 320 344 105 12 345 338 347 359 354 352 59 82 248 231 165 227 242 345 328 271 67 81 124 290 126 167 225 276 289 342 12 356 11 335 321 20 355 356 333 321 357 16 153 177 273 131 268 296 299 193 311 347 42 21 360 65 128 182 179 112 122 177 93 139 139 146 217 285 313 269 227 201 213 232 221 208 1 344 341 26 43 47 53 60 68 72 72
337 294 162 114 31 357 343 347 353 358 36 69 116 251 217 237 283 355 6 352 115 85 89 203 242 41 167 174 225 276 341 46 135 33 339 254 63 25 19 345 306 343 1 119 141 323 82 132 284 294 265 292 348 35 259 304 355 45 51 25 32 130 163 160 143 159 171 190 244 306 317 267 228 232 181 170 206 253 317 351 17 18 25 40 55 66 72 74
334 319 165 202 325 326 327 336 345 33 59 127 198 212 254 278 308 353 10 10 24 99 135 207 165 9 256 199 206 255 22 146 152 114 247 237 62 26 16 6 317 327 340 44 91 27 54 101 246 294 325 291 286 309 200 190 182 24 21 346 346 72 127 162 87 114 135 154 182 191 294 272 248 226 175 176 210 231 268 341 355 6 27 47 58 66 73 76
350 352 221 247 271 295 317 350 32 69 88 137 194 225 307 325 318 334 0 14 12 119 157 166 159 172 197 194 223 214 102 77 120 141 220 266 43 73 1 352 298 296 341 25 40 16 43 118 197 288 336 285 237 250 204 176 171 165 178 199 172 136 132 144 294 310 91 135 169 158 214 267 258 210 208 212 214 234 305 335 349 17 46 65 70 75 77 78
0 352 290 274 270 290 314 38 38 42 119 129 290 269 296 323 331 325 349 9 8 6 56 111 150 166 175 186 210 176 139 125 178 177 199 147 104 152 335 341 319 271 40 39 324 305 132 105 116 272 272 241 250 262 167 168 153 137 145 149 139 137 125 136 204 251 188 120 150 132 167 268 265 230 230 251 247 281 355 20 54 59 70 76 77 82 83 82
346 327 305 284 277 298 352 32 354 6 135 290 310 266 273 296 343 340 349 6 6 357 6 24 149 167 194 193 168 161 166 196 182 174 184 151 135 220 344 2 7 22 58 32 305 355 79 83 37 296 293 303 302 323 35 42 82 93 22 50 111 140 129 146 179 175 162 179 147 119 233 264 270 274 313 332 354 87 75 81 93 87 84 81 81 84 83 81
335 319 310 312 297 290 274 181 231 339 303 325 351 341 303 259 161 8 344 338 341 349 34 10 126 152 277 72 91 132 187 189 183 38 105 138 185 314 1 21 36 49 43 20 276 312 346 276 96 18 331 331 336 347 354 347 32 96 300 334 71 102 98 108 120 80 132 213 160 157 231 250 265 317 354 352 26 89 93 97 103 99 92 88 85 84 81 77
337 317 331 359 344 352 95 105 142 152 323 352 355 332 327 307 337 355 331 338 2 72 121 331 313 45 33 49 55 34 34 74 319 356 50 25 290 326 2 22 41 45 34 27 9 228 207 209 144 130 230 240 261 273 267 282 306 33 304 297 325 109 111 123 83 91 216 244 165 168 215 259 278 308 339 343 26 90 101 100 103 103 99 94 87 80 73 67
358 347 344 6 25 58 71 57 55 95 102 39 356 320 357 325 321 341 16 57 28 50 79 11 342 32 38 49 59 22 9 21 23 64 58 338 275 305 338 8 41 31 22 28 23 44 136 9 193 168 189 203 205 229 225 173 192 227 214 243 250 137 118 109 102 142 197 193 200 214 185 156 271 278 298 311 328 123 129 107 104 110 109 103 91 78 67 58
34 43 345 360 19 44 57 40 29 26 46 105 128 320 1 324 311 343 26 50 41 48 57 30 18 40 56 73 96 94 336 357 18 74 89 303 256 294 323 335 50 24 27 31 17 38 99 348 259 175 206 220 212 239 257 105 222 214 177 213 242 231 122 126 164 205 169 139 247 244 186 176 247 252 249 261 262 236 215 132 109 114 120 118 101 79 61 47
41 67 62 43 349 346 45 10 358 360 17 59 135 26 20 8 348 348 348 360 32 50 51 15 11 16 49 132 131 147 343 3 3 3 156 333 298 325 348 349 42 24 38 39 18 62 117 273 245 174 257 260 243 256 261 237 256 236 187 207 224 206 175 182 208 203 156 178 242 227 183 202 236 236 229 230 221 217 218 174 101 110 129 131 110 76 48 31
44 62 46 31 31 173 341 330 329 9 28 14 26 41 40 25 355 303 286 344 2 12 45 94 309 328 358 89 118 131 213 201 300 292 205 159 328 329 359 331 323 27 36 37 12 78 131 251 227 184 280 292 277 265 243 214 251 270 240 225 216 205 201 204 219 206 181 218 243 198 189 220 229 219 224 216 203 216 228 221 184 139 139 136 107 66 38 23
45 46 9 6 35 20 351 343 2 63 22 10 31 24 23 44 357 317 303 38 359 329 29 87 255 294 14 67 101 154 226 185 163 248 184 145 345 257 266 271 236 1 18 35 343 27 115 247 244 176 285 286 278 281 260 218 212 240 254 247 228 229 231 224 231 217 200 244 256 212 210 245 247 225 214 193 194 223 232 221 191 142 142 142 112 64 31 16
45 35 7 2 26 1 352 356 35 76 35 13 22 332 339 1 348 321 310 52 69 38 343 342 217 218 25 32 73 314 289 217 180 209 184 173 228 214 199 204 189 302 351 15 233 355 116 245 315 49 282 263 230 250 264 264 252 249 249 241 225 225 225 218 214 194 187 221 245 230 231 252 245 216 199 193 201 218 223 220 194 148 159 159 129 57 20 1
34 25 1 358 14 358 2 2 22 64 83 349 339 318 315 325 343 357 232 49 52 45 22 21 148 149 39 28 5 324 318 298 256 259 231 229 264 252 241 244 210 209 255 175 255 287 159 208 235 146 249 266 216 231 254 322 308 266 238 209 212 215 217 228 239 217 199 198 208 223 237 241 210 174 172 197 216 220 224 227 221 190 186 175 138 21 1 346